Location: Black Creek
(40.9000°S, 175.5500°E)
Time: 04:59:08
(UTC+00:00)

Meteor 1-24 Rocket - Pass Details

Date: 04 August 2024
Orbit: 790 x 926 km, 81.3° (Epoch: 07 September)

Event Time Altitude Azimuth Distance (km) Brightness Sun altitude
Rises 18:07:12 0° 326° (NW) 3,566 6.7 -14.1°
Reaches altitude 10° 18:09:56 10° 316° (NW) 2,627 5.9 -13.6°
Maximum altitude 18:15:19 33° 253° (WSW) 1,491 4.5 -12.6°
Drops below altitude 10° 18:20:40 10° 189° (S) 2,604 6.0 -11.6°
Sets 18:23:23 0° 179° (S) 3,532 6.8 -11.1°
